Weather History for Wendover, UT

Change the Weather History Date:

Thursday, July 11, 2013

  Actual Average Record
Temperature  
Mean Temperature 80 °F -  
Max Temperature 87 °F 90 °F 102 °F (2002)
Min Temperature 73 °F 66 °F 52 °F (1983)
Cooling Degree Days 15    
Growing Degree Days 30 (Base 50)    
Moisture  
Dew Point 37 °F    
Average Humidity 22    
Maximum Humidity 41    
Minimum Humidity 10    
Precipitation  
Precipitation 0.00 in - - ()
Sea Level Pressure  
Sea Level Pressure 29.99 in    
Wind  
Wind Speed 14 mph (NW)    
Max Wind Speed 31 mph    
Max Gust Speed 41 mph    
Visibility 10 miles    
Events      
Averages and records for this station are not official NWS values.
T = Trace of Precipitation, MM = Missing Value Source: NWS Daily Summary

Daily Weather History Graph

Daily Weather History Graph

Search for Another Location

Airport:

Trip Planner

Search our weather history database for the weather conditions in past years. The results will help you decide how hot, cold, wet, or windy it might be!

Date:

Astronomy

Jul. 11, 2013 Rise Set
Actual Time 6:15 AM MDT 9:08 PM MDT
Civil Twilight 5:42 AM MDT 9:40 PM MDT
Nautical Twilight 5:01 AM MDT 10:21 PM MDT
Astronomical Twilight 4:13 AM MDT 11:09 PM MDT
Moon 9:38 AM MDT (7/11) 10:49 PM MDT (7/11)
Length of Visible Light 15h 58m
Length of Day
14h 52m
Waxing Crescent, 11% of the Moon is Illuminated
Jul 11
Waxing Crescent
Jul 15
First Quarter
Jul 22
Full
Jul 29
Last Quarter
Aug 6
New

Hourly Weather History & Observations

Time (MDT) Temp. Dew Point Humidity Pressure Visibility Wind Dir Wind Speed Gust Speed Precip Events Conditions
12:35 AM 87.8 °F 26.6 °F 11% 29.94 in 10.0 mi NNW 18.4 mph 26.5 mph N/A   Clear
12:55 AM 87.8 °F 26.6 °F 11% 29.95 in 10.0 mi NNW 13.8 mph 19.6 mph N/A   Clear
1:15 AM 87.8 °F 26.6 °F 11% 29.94 in 10.0 mi NW 16.1 mph - N/A   Clear
1:35 AM 87.8 °F 26.6 °F 11% 29.93 in 10.0 mi NW 19.6 mph 24.2 mph N/A   Clear
1:55 AM 87.8 °F 26.6 °F 11% 29.93 in 10.0 mi NNW 11.5 mph 25.3 mph N/A   Clear
2:15 AM 87.8 °F 26.6 °F 11% 29.93 in 10.0 mi NNW 18.4 mph 21.9 mph N/A   Clear
2:35 AM 87.8 °F 26.6 °F 11% 29.94 in 10.0 mi North 11.5 mph - N/A   Clear
2:55 AM 87.8 °F 24.8 °F 10% 29.93 in 10.0 mi NW 11.5 mph 17.3 mph N/A   Clear
3:15 AM 87.8 °F 24.8 °F 10% 29.94 in 10.0 mi NW 13.8 mph 17.3 mph N/A   Clear
3:35 AM 87.8 °F 24.8 °F 10% 29.94 in 10.0 mi NW 15.0 mph 21.9 mph N/A   Clear
3:55 AM 86.0 °F 24.8 °F 11% 29.94 in 10.0 mi NW 12.7 mph 18.4 mph N/A   Clear
4:15 AM 87.8 °F 24.8 °F 10% 29.94 in 10.0 mi NW 12.7 mph - N/A   Clear
4:35 AM 84.2 °F 24.8 °F 11% 29.94 in 10.0 mi WNW 16.1 mph - N/A   Clear
4:55 AM 86.0 °F 24.8 °F 11% 29.93 in 10.0 mi NW 11.5 mph 21.9 mph N/A   Clear
5:15 AM 86.0 °F 24.8 °F 11% 29.93 in 10.0 mi NW 15.0 mph 19.6 mph N/A   Clear
5:35 AM 86.0 °F 26.6 °F 12% 29.92 in 10.0 mi NNW 17.3 mph 23.0 mph N/A   Clear
5:55 AM 86.0 °F 26.6 °F 12% 29.93 in 10.0 mi NNW 10.4 mph - N/A   Clear
6:15 AM 84.2 °F 26.6 °F 12% 29.94 in 10.0 mi NW 12.7 mph - N/A   Clear
6:35 AM 84.2 °F 28.4 °F 13% 29.96 in 10.0 mi WNW 8.1 mph - N/A   Clear
6:55 AM 82.4 °F 28.4 °F 14% 29.97 in 10.0 mi SW 6.9 mph - N/A   Clear
7:35 AM 82.4 °F 30.2 °F 15% 29.99 in 10.0 mi SW 3.5 mph - N/A   Clear
7:55 AM 82.4 °F 32.0 °F 16% 29.99 in 10.0 mi SSE 10.4 mph - N/A   Clear
8:15 AM 80.6 °F 30.2 °F 16% 29.98 in 10.0 mi Calm Calm - N/A   Clear
8:35 AM 80.6 °F 32.0 °F 17% 30.00 in 10.0 mi SSW 3.5 mph - N/A   Clear
8:55 AM 80.6 °F 30.2 °F 16% 29.99 in 10.0 mi West 3.5 mph - N/A   Clear
9:15 AM 80.6 °F 32.0 °F 17% 30.00 in 10.0 mi West 5.8 mph - N/A   Clear
9:35 AM 82.4 °F 32.0 °F 16% 30.01 in 10.0 mi WSW 3.5 mph - N/A   Clear
9:55 AM 82.4 °F 32.0 °F 16% 29.99 in 10.0 mi NNW 12.7 mph - N/A   Clear
10:15 AM 84.2 °F 35.6 °F 18% 29.99 in 10.0 mi NW 16.1 mph - N/A   Partly Cloudy
10:35 AM 84.2 °F 35.6 °F 18% 30.00 in 10.0 mi NNW 11.5 mph 17.3 mph N/A   Clear
10:55 AM 84.2 °F 37.4 °F 19% 30.00 in 10.0 mi NW 21.9 mph 32.2 mph N/A   Clear
11:15 AM 84.2 °F 39.2 °F 20% 29.99 in 10.0 mi NW 21.9 mph 25.3 mph N/A   Clear
11:35 AM 84.2 °F 39.2 °F 20% 29.99 in 10.0 mi North 15.0 mph - N/A   Clear
11:55 AM 84.2 °F 41.0 °F 22% 29.99 in 10.0 mi NNW 15.0 mph - N/A   Clear
12:15 PM 86.0 °F 41.0 °F 20% 30.00 in 10.0 mi NW 18.4 mph 24.2 mph N/A   Clear
12:35 PM 84.2 °F 41.0 °F 22% 30.00 in 10.0 mi NW 13.8 mph - N/A   Clear
12:55 PM 84.2 °F 42.8 °F 23% 30.00 in 10.0 mi NNW 16.1 mph 20.7 mph N/A   Clear
1:15 PM 82.4 °F 44.6 °F 26% 30.00 in 10.0 mi NNW 24.2 mph 31.1 mph N/A   Clear
1:55 PM 86.0 °F 44.6 °F 23% 30.00 in 10.0 mi NW 19.6 mph 25.3 mph N/A   Clear
2:15 PM 84.2 °F 44.6 °F 25% 30.01 in 10.0 mi NW 24.2 mph 32.2 mph N/A   Clear
2:35 PM 84.2 °F 44.6 °F 25% 30.00 in 10.0 mi NNW 26.5 mph 35.7 mph N/A   Clear
2:55 PM 84.2 °F 44.6 °F 25% 30.01 in 10.0 mi NW 26.5 mph 36.8 mph N/A   Clear
3:15 PM 84.2 °F 44.6 °F 25% 30.02 in 10.0 mi WNW 31.1 mph 41.4 mph N/A   Clear
3:35 PM 82.4 °F 46.4 °F 28% 30.02 in 10.0 mi WNW 31.1 mph 40.3 mph N/A   Clear
3:55 PM 80.6 °F 46.4 °F 30% 30.02 in 10.0 mi WNW 28.8 mph 35.7 mph N/A   Clear
4:15 PM 80.6 °F 46.4 °F 30% 30.02 in 10.0 mi WNW 24.2 mph 34.5 mph N/A   Clear
4:35 PM 78.8 °F 46.4 °F 32% 30.02 in 10.0 mi WNW 24.2 mph 33.4 mph N/A   Clear
5:35 PM 78.8 °F 44.6 °F 30% 30.01 in 10.0 mi West 24.2 mph - N/A   Partly Cloudy
5:55 PM 78.8 °F 44.6 °F 30% 30.00 in 10.0 mi West 23.0 mph 27.6 mph N/A   Mostly Cloudy
6:15 PM 78.8 °F 44.6 °F 30% 30.01 in 10.0 mi West 20.7 mph 24.2 mph N/A   Overcast
6:35 PM 78.8 °F 44.6 °F 30% 30.01 in 10.0 mi West 17.3 mph - N/A   Overcast
6:55 PM 78.8 °F 44.6 °F 30% 30.01 in 10.0 mi West 16.1 mph - N/A   Overcast
7:15 PM 78.8 °F 44.6 °F 30% 30.01 in 10.0 mi WNW 16.1 mph - N/A   Mostly Cloudy
7:35 PM 77.0 °F 46.4 °F 34% 30.02 in 10.0 mi WNW 11.5 mph - N/A   Mostly Cloudy
7:55 PM 75.2 °F 46.4 °F 36% 30.01 in 10.0 mi North 5.8 mph - N/A   Overcast
8:15 PM 77.0 °F 46.4 °F 34% 30.02 in 10.0 mi SSW 8.1 mph - N/A   Mostly Cloudy
8:35 PM 77.0 °F 46.4 °F 34% 30.02 in 10.0 mi Calm Calm - N/A   Scattered Clouds
8:55 PM 75.2 °F 48.2 °F 38% 30.02 in 10.0 mi NNE 3.5 mph - N/A   Mostly Cloudy
9:15 PM 75.2 °F 46.4 °F 36% 30.01 in 10.0 mi Calm Calm - N/A   Mostly Cloudy
9:55 PM 75.2 °F 46.4 °F 36% 30.02 in 10.0 mi Calm Calm - N/A   Clear
10:15 PM 73.4 °F 48.2 °F 41% 30.03 in 10.0 mi ENE 5.8 mph - N/A   Clear
10:35 PM 73.4 °F 48.2 °F 41% 30.03 in 10.0 mi ENE 5.8 mph - N/A   Clear
10:55 PM 73.4 °F 48.2 °F 41% 30.03 in 10.0 mi ENE 4.6 mph - N/A   Clear
11:15 PM 73.4 °F 48.2 °F 41% 30.03 in 10.0 mi ESE 3.5 mph - N/A   Clear
11:35 PM 75.2 °F 50.0 °F 41% 30.03 in 10.0 mi South 8.1 mph - N/A   Clear
11:55 PM 73.4 °F 48.2 °F 41% 30.02 in 10.0 mi South 8.1 mph - N/A   Clear